Location: Croissy-Beaubourg
(48.8283°N, 2.6696°E)
Time: 22:49:46
(UTC+00:00)

Cosmos 2227 - Pass Details

Date: 16 October 2021
Orbit: 833 x 862 km, 71.0° (Epoch: 07 December)

Event Time Altitude Azimuth Distance (km) Brightness Sun altitude
Rises 18:44:08 0° 332° (NNW) 3,449 7.9 -18.3°
Reaches altitude 10° 18:46:37 10° 334° (NNW) 2,511 7.1 -18.7°
Maximum altitude 18:52:24 75° 60° (ENE) 897 4.1 -19.6°
Enters shadow 18:55:36 28° 141° (SE) 1,576 5.2 -20.2°
